Nå er det jul PDF Skriv ut E-post
Skrevet av Per Norgaard   
tirsdag 22. desember 2009 23:06

Styret vil med dette ønske alle flyvenner en riktig GOD JUL og et GODT NYTTÅR, med håp om mye fint vær og aktiv flyging. Vi sees i hytte og hangar.Smile

Per

 

 
Fuelanlegget er i drift igjen PDF Skriv ut E-post
Skrevet av Carl Jæger   
tirsdag 15. desember 2009 12:19
Det meldes at fuelanlegget nå er klart til bruk.
 
Fuelsituasjonen, forhåpentligvis den siste... PDF Skriv ut E-post
Skrevet av Per Norgaard   
mandag 14. desember 2009 19:39

Begge flyene har blitt fylt opp idag med jerrykanner.

Ellers sier Shell i ettermiddag at anlegget er planlagt åpnet imorgen, men følg med på aktuell Notam. Vi får håpe at denne vanskelige perioden nå er over.

Per

 

Sist oppdatert mandag 14. desember 2009 22:53
 
«StartForrige41424344454647NesteSiste»

Side 47 av 47
 
METAR
2017/06/26 18:50 ENCN 261850Z 31011KT 280V360 CAVOK 15/03 Q1005
TAF
2017/06/26 18:37 TAF ENCN 261700Z 2618/2621 30008KT CAVOK PROB30 TEMPO 2618/2620 30015G25KT
LN-KFK
Operativ VFR-natt
VFR dag
03:07 - 23:54
Brannvakt
Inaktiv
Banner
Banner
Banner
Banner
Banner